SCP
-0 -0 -0 0 0 0 0 0 0 0 0 0 0 0 0 0 0 0 0 0 0 0 0 0 0 0 -0 -0 0 0 0 0 0 0 0 0 0 0 0 -0 -0 0 0
-0 -0 0 0 0 0 0 0 0 0 0 0 0 0 0 1 0 0 0 0 0 0 0 0 0 0 0 0 0 0 0 0 0 0 0 0 0 0 0 0 0 0 -0
0 0 0 0 0 0 0 0 0 0 0 0 0 0 0 0 0 0 0 0 0 0 0 0 -0 0 0 0 0 0 0 0 0 0 0 0 0 0 0 0 0 -0 0
0 0 0 0 0 0 1 1 1 0 1 0 0 0 1 0 0 0 0 0 0 0 0 0 0 0 0 0 0 0 0 0 0 0 0 0 0 0 0 -0 -0 0 0
0 0 0 0 0 1 1 1 1 1 1 0 1 0 0 0 0 0 0 0 0 0 0 0 0 0 0 0 -0 0 0 0 0 0 0 -0 -0 0 0 0 0 -0 -0
0 0 0 0 1 1 1 1 1 1 1 1 1 0 0 0 0 0 0 0 0 0 0 0 0 0 0 0 -0 -0 -0 -0 0 0 0 0 -0 0 0 0 0 0 0
0 1 0 0 1 1 1 1 1 1 1 0 0 0 0 0 0 0 0 0 0 0 0 0 0 0 0 0 0 0 0 0 0 0 0 0 0 0 0 0 0 0 0
1 1 1 1 1 1 1 1 1 0 0 0 0 0 0 0 0 0 0 0 0 0 0 0 0 0 0 0 0 0 0 0 0 0 0 0 -0 0 0 0 0 0 0
1 1 1 1 1 1 1 1 0 0 0 0 0 0 0 0 0 0 0 0 0 0 0 0 0 0 0 0 0 0 0 0 0 0 0 0 0 -0 -0 -0 0 0 0
3 3 3 2 2 1 0 0 0 0 0 0 0 0 0 0 0 0 0 0 0 0 0 0 0 0 0 0 0 0 0 -0 0 0 0 0 0 0 0 0 0 0 0
5 4 3 3 1 0 0 0 0 0 0 0 0 0 0 0 0 0 0 0 0 0 0 0 0 0 0 0 0 0 -0 -0 -0 -0 0 0 0 0 0 0 0 0 0
5 4 3 2 0 0 0 0 0 0 0 0 0 0 0 0 0 0 0 0 0 0 0 0 0 0 0 0 0 -0 -0 -0 -0 -0 0 0 0 0 0 0 0 0 0
4 3 2 1 0 0 0 0 0 0 0 0 0 0 0 0 0 0 0 0 0 0 0 0 0 0 0 0 -0 -0 -0 0 0 0 0 0 0 0 0 0 0 0 0
3 2 1 0 0 0 0 0 0 0 0 0 0 0 0 0 0 0 0 0 0 0 0 0 0 0 0 -0 -0 0 0 0 0 0 0 0 0 0 0 0 0 0 0
2 0 0 0 0 0 0 0 0 0 0 0 0 0 0 0 0 0 0 0 0 0 0 0 0 0 0 0 0 0 0 0 0 0 0 0 0 0 0 0 0 0 0
0 0 0 0 0 0 0 0 0 0 0 0 0 0 0 0 0 0 0 0 0 0 0 0 0 0 0 0 0 0 0 0 0 0 0 0 0 0 0 0 0 0 0
0 0 0 0 0 0 0 0 0 0 0 0 0 0 0 0 0 0 0 0 0 0 0 0 0 0 0 0 0 0 0 0 0 0 0 0 0 0 0 0 0 0 0
0 0 0 0 0 0 0 0 0 0 0 0 0 0 0 0 0 0 0 0 0 0 0 0 0 0 0 0 0 0 0 0 0 0 0 0 0 0 0 0 0 0 0
0 0 0 0 0 0 0 0 0 0 0 0 0 0 0 0 0 0 0 0 0 0 0 0 0 0 0 0 0 0 0 0 0 0 0 0 0 0 0 0 0 0 0
0 0 0 0 0 0 0 0 0 0 0 0 0 0 0 0 0 0 0 0 0 0 0 0 0 0 0 0 0 -0 -0 -0 -0 0 0 0 0 0 0 0 0 0 0
0 0 0 0 0 0 0 0 0 0 0 0 0 0 0 0 0 0 0 0 0 0 0 0 0 0 0 0 0 0 0 -0 0 0 0 0 0 0 0 0 0 0 0
0 0 0 0 0 0 0 0 0 0 0 0 0 0 0 0 0 0 0 0 0 0 0 0 0 0 0 0 0 0 0 0 0 0 0 0 0 0 0 0 0 0 0
0 0 0 0 0 0 0 0 0 0 0 0 0 0 0 0 0 0 0 0 0 0 0 0 0 0 0 0 0 0 0 0 0 0 0 0 0 0 0 0 0 0 0
0 0 0 0 0 0 0 0 0 0 0 0 0 0 0 0 0 0 0 0 0 0 0 0 0 0 0 0 0 0 0 0 0 0 0 0 0 0 0 0 0 0 0
0 0 0 0 0 0 0 0 0 0 0 0 0 0 0 0 0 0 0 0 0 0 0 0 0 0 0 0 0 0 0 0 0 0 0 0 0 0 0 0 0 0 0
0 0 0 0 0 0 0 0 0 0 0 0 0 0 0 0 0 0 0 0 0 0 0 0 0 0 0 0 0 0 0 0 0 0 0 0 0 0 0 0 0 0 0
Wind_Speed_500mb
28 24 25 21 17 9 9 11 16 12 18 20 25 27 25 25 27 17 16 24 26 29 25 22 34 41 43 41 29 26 27 31 32 30 34 39 40 38 38 37 40 37 33
34 28 27 27 27 28 24 20 20 23 24 25 26 18 23 20 24 20 20 20 32 23 22 27 27 36 42 30 32 28 27 28 30 32 35 36 40 41 44 40 46 45 43
34 34 34 28 17 10 11 16 22 23 23 30 26 25 24 22 28 30 28 27 29 32 23 24 27 34 30 26 29 25 28 27 24 26 28 32 32 36 41 46 51 47 49
38 36 28 28 22 23 19 25 26 32 30 33 33 30 21 16 23 19 17 19 20 15 17 24 21 23 26 26 25 28 27 28 27 24 27 28 27 28 33 42 64 49 58
37 41 32 30 28 26 33 34 34 33 31 34 31 29 27 22 18 19 18 11 8 4 19 13 16 21 25 32 27 34 26 28 28 28 25 26 27 28 31 32 33 42 53
34 39 37 36 36 37 37 36 35 33 30 28 15 24 15 7 14 8 4 6 12 15 15 10 12 24 33 36 29 20 26 29 29 33 32 27 26 29 30 34 37 43 48
43 37 40 38 40 39 40 34 32 27 22 16 16 22 12 5 12 8 1 12 9 13 7 14 21 26 29 33 22 26 30 34 33 31 33 32 32 31 33 34 41 42 45
53 45 42 37 33 37 35 27 24 19 19 14 12 8 14 22 13 13 11 7 13 14 11 16 23 26 25 35 28 34 45 37 32 30 31 34 36 33 36 45 44 43 37
62 53 46 44 40 39 31 27 22 16 23 11 4 5 12 9 29 15 13 9 14 14 11 16 22 19 21 26 35 43 45 37 30 28 29 31 36 34 38 41 41 36 28
69 56 53 54 48 43 37 29 23 19 24 22 16 13 10 11 7 7 7 7 3 10 11 17 12 13 9 19 33 43 47 52 40 25 25 29 31 36 34 34 33 30 26
76 65 62 58 57 47 41 32 26 26 29 32 29 25 22 15 13 13 14 20 10 7 7 18 11 5 9 18 32 44 51 58 48 32 22 26 29 34 37 32 32 26 21
85 72 68 66 62 55 46 34 30 28 27 32 30 24 25 24 18 13 8 8 13 5 7 9 9 7 17 27 38 45 55 55 37 32 24 25 27 31 34 31 28 22 23
83 78 76 67 65 57 51 41 36 31 28 31 28 22 18 15 12 9 4 5 9 3 6 1 10 18 24 31 41 50 51 37 25 22 23 24 26 30 30 26 24 17 13
85 76 77 74 67 63 53 43 36 31 31 29 29 23 20 14 9 8 8 6 5 8 11 14 16 25 33 41 44 36 37 35 17 22 26 27 36 38 34 27 20 19 19
84 83 75 73 63 57 50 43 36 33 32 32 32 29 25 15 13 10 8 9 8 8 21 10 21 32 33 27 26 30 37 33 30 28 26 32 38 37 36 33 28 23 28
82 88 73 67 58 53 46 41 36 35 38 37 33 31 22 17 13 10 8 12 12 13 19 22 33 32 28 20 22 17 26 32 35 26 28 34 41 44 39 34 34 31 31
90 78 64 62 61 59 54 50 40 41 40 37 31 25 23 18 14 11 11 12 14 19 28 33 34 27 16 21 12 9 25 32 25 24 29 33 34 37 33 31 32 33 35
82 74 67 64 63 59 59 54 47 44 40 35 30 25 20 14 11 12 14 14 20 24 30 37 35 23 22 19 26 26 28 36 38 36 33 33 33 35 30 25 26 29 26
79 70 60 63 65 62 62 49 44 44 40 38 32 24 21 15 16 14 15 17 25 26 27 34 38 31 26 38 39 40 41 47 48 39 36 45 38 35 31 24 24 28 26
76 64 60 64 65 62 56 52 49 48 44 38 31 22 19 16 16 16 22 20 24 29 28 26 28 30 31 41 46 51 55 51 52 41 36 41 40 34 32 27 32 28 26
71 66 66 61 57 55 59 58 55 51 42 35 24 22 20 14 18 20 18 22 30 28 24 23 25 27 27 35 41 46 47 52 42 40 37 21 22 21 25 24 36 34 20
72 67 67 70 63 63 60 55 52 45 36 27 23 17 16 18 17 16 20 26 27 26 25 29 26 31 31 32 38 46 55 56 59 33 37 6 23 14 29 22 38 32 17
76 76 73 75 72 61 51 46 39 31 24 21 19 18 15 18 22 23 28 25 27 26 30 30 31 32 38 39 45 50 52 53 47 30 35 31 19 25 33 21 32 25 19
83 84 75 72 70 62 52 44 32 23 22 19 13 13 18 21 26 26 25 24 32 32 29 29 34 38 39 42 47 49 44 41 27 18 26 38 34 28 24 20 28 25 25
90 77 76 64 54 47 37 30 25 21 18 16 16 21 22 28 29 33 33 33 31 31 30 34 37 43 46 47 42 44 35 33 43 28 19 34 30 29 15 20 25 25 21
90 77 62 50 39 34 29 24 20 16 13 15 24 20 23 27 33 41 39 38 40 40 42 44 48 51 51 49 39 31 35 33 35 40 22 41 38 34 23 22 26 30 24
Wind_Direction_500mb
185 202 230 245 251 264 290 322 318 327 309 299 301 306 338 327 324 351 316 319 323 310 327 336 345 344 351 347 346 341 325 315 309 298 283 280 273 275 278 269 265 260 254
197 204 217 221 232 238 245 242 253 294 308 302 293 331 325 307 321 339 340 323 318 325 334 340 350 338 346 4 3 360 348 325 315 308 304 287 278 275 273 276 268 260 260
205 214 222 215 212 215 273 256 262 286 285 291 289 297 313 314 308 316 307 302 317 320 326 353 358 347 354 344 348 354 351 355 342 328 316 305 296 280 276 275 275 255 258
223 225 218 217 214 212 233 252 268 276 280 288 292 290 274 304 311 311 317 307 316 344 349 350 353 357 359 343 340 345 339 351 344 339 336 331 318 296 283 278 284 241 271
222 223 216 211 208 215 240 252 257 267 274 288 290 289 286 275 278 286 303 331 357 348 333 8 334 337 340 341 340 333 336 344 353 348 341 337 330 317 299 294 283 269 268
219 216 214 214 218 226 238 247 250 256 271 277 293 303 320 270 236 270 226 271 288 316 337 12 330 327 321 330 328 333 347 337 337 339 334 330 328 322 312 301 295 286 277
228 224 216 215 224 228 239 246 247 253 258 261 275 296 26 173 127 92 222 303 319 351 304 351 323 325 342 355 336 341 342 331 330 326 327 324 320 316 311 306 306 301 290
235 234 218 216 220 226 230 232 235 250 238 234 266 317 99 129 102 122 87 72 32 20 5 329 339 339 344 348 356 351 346 333 338 337 333 324 318 319 312 305 306 303 299
231 239 227 224 222 222 224 225 231 231 200 172 199 165 145 155 119 115 96 56 57 24 9 357 351 345 335 340 334 335 342 340 329 327 330 328 326 317 309 313 311 307 305
230 230 229 224 224 222 225 221 229 216 195 170 163 161 147 130 162 215 223 333 13 347 17 9 21 346 305 316 316 321 327 331 322 315 326 320 324 326 322 316 315 308 304
225 225 231 227 223 222 218 217 221 198 194 200 190 165 163 170 172 223 275 305 305 343 65 16 44 59 291 310 314 316 319 321 321 313 324 325 314 318 323 318 314 308 293
221 229 230 224 222 221 217 214 210 205 198 206 207 207 197 191 201 223 240 290 332 133 97 58 35 320 303 307 308 306 310 316 311 314 326 328 317 319 323 315 313 300 276
220 227 228 218 217 214 214 213 209 209 203 204 207 201 199 194 188 193 240 293 329 298 249 219 329 319 311 301 300 307 317 330 328 323 324 321 326 320 320 311 306 296 256
224 236 234 216 218 210 208 207 202 204 200 195 191 196 201 196 187 187 217 263 286 300 287 291 264 277 296 298 305 317 338 343 336 311 317 328 334 329 318 314 297 288 266
234 239 239 224 211 207 204 201 203 204 196 193 187 191 201 195 193 219 220 252 286 296 296 266 284 305 312 322 324 335 336 353 331 312 334 331 324 318 315 303 298 271 258
241 234 219 215 205 202 196 197 198 197 194 191 185 182 198 200 212 228 245 242 248 268 283 270 303 313 335 324 314 316 304 329 338 314 328 327 325 322 313 304 291 284 263
226 224 217 213 210 196 192 192 201 201 198 196 190 190 199 208 217 227 250 263 271 269 273 293 303 327 323 332 317 276 288 308 319 316 307 328 324 330 316 310 292 284 266
214 215 210 207 203 195 192 195 194 199 200 195 202 202 214 222 231 245 262 285 292 289 294 298 307 310 323 303 288 286 295 297 308 308 290 307 309 324 314 325 296 290 278
213 210 208 201 192 190 192 191 194 192 196 199 203 206 221 231 247 269 280 293 303 297 291 291 294 292 287 288 282 283 292 297 302 304 280 282 297 296 314 321 331 274 275
214 210 202 196 191 190 189 187 189 194 196 203 214 217 223 242 264 274 290 300 303 304 303 291 281 286 287 291 294 297 297 299 302 303 293 289 295 290 304 334 336 322 278
208 199 195 192 188 186 184 183 191 199 205 207 210 220 232 250 265 273 290 302 306 312 311 308 300 302 306 312 310 315 316 314 311 321 318 320 330 283 300 331 337 331 297
192 186 179 184 183 181 187 192 199 202 200 205 213 224 245 248 257 276 292 296 297 306 311 319 317 314 314 310 311 323 324 328 328 338 340 297 351 348 340 330 330 324 316
179 174 179 181 177 181 184 193 196 195 199 211 217 230 246 266 271 279 279 271 291 295 299 298 299 309 304 303 310 315 318 319 320 337 338 326 331 337 347 323 318 312 314
172 172 173 175 179 174 178 186 196 203 215 217 227 244 254 259 271 275 272 280 285 292 299 283 289 293 296 298 302 308 316 320 322 342 350 355 356 351 337 319 315 307 309
168 169 172 171 176 170 178 192 197 201 217 234 247 282 262 263 268 260 271 280 278 286 281 275 275 278 285 291 298 301 314 321 327 328 341 344 337 353 321 308 322 311 298
162 161 156 157 159 170 179 188 203 224 235 259 276 257 260 262 258 257 266 273 277 281 279 272 272 275 283 287 290 287 304 304 322 321 308 313 319 336 334 310 332 340 315
Wind_Speed_850mb
28 24 25 21 17 9 9 11 16 12 18 20 25 27 25 25 27 17 16 24 26 29 25 22 34 41 43 41 29 26 27 31 32 30 34 39 40 38 38 37 40 37 33
34 28 27 27 27 28 24 20 20 23 24 25 26 18 23 20 24 20 20 20 32 23 22 27 27 36 42 30 32 28 27 28 30 32 35 36 40 41 44 40 46 45 43
34 34 34 28 17 10 11 16 22 23 23 30 26 25 24 22 28 30 28 27 29 32 23 24 27 34 30 26 29 25 28 27 24 26 28 32 32 36 41 46 51 47 49
38 36 28 28 22 23 19 25 26 32 30 33 33 30 21 16 23 19 17 19 20 15 17 24 21 23 26 26 25 28 27 28 27 24 27 28 27 28 33 42 64 49 58
37 41 32 30 28 26 33 34 34 33 31 34 31 29 27 22 18 19 18 11 8 4 19 13 16 21 25 32 27 34 26 28 28 28 25 26 27 28 31 32 33 42 53
34 39 37 36 36 37 37 36 35 33 30 28 15 24 15 7 14 8 4 6 12 15 15 10 12 24 33 36 29 20 26 29 29 33 32 27 26 29 30 34 37 43 48
43 37 40 38 40 39 40 34 32 27 22 16 16 22 12 5 12 8 1 12 9 13 7 14 21 26 29 33 22 26 30 34 33 31 33 32 32 31 33 34 41 42 45
53 45 42 37 33 37 35 27 24 19 19 14 12 8 14 22 13 13 11 7 13 14 11 16 23 26 25 35 28 34 45 37 32 30 31 34 36 33 36 45 44 43 37
62 53 46 44 40 39 31 27 22 16 23 11 4 5 12 9 29 15 13 9 14 14 11 16 22 19 21 26 35 43 45 37 30 28 29 31 36 34 38 41 41 36 28
69 56 53 54 48 43 37 29 23 19 24 22 16 13 10 11 7 7 7 7 3 10 11 17 12 13 9 19 33 43 47 52 40 25 25 29 31 36 34 34 33 30 26
76 65 62 58 57 47 41 32 26 26 29 32 29 25 22 15 13 13 14 20 10 7 7 18 11 5 9 18 32 44 51 58 48 32 22 26 29 34 37 32 32 26 21
85 72 68 66 62 55 46 34 30 28 27 32 30 24 25 24 18 13 8 8 13 5 7 9 9 7 17 27 38 45 55 55 37 32 24 25 27 31 34 31 28 22 23
83 78 76 67 65 57 51 41 36 31 28 31 28 22 18 15 12 9 4 5 9 3 6 1 10 18 24 31 41 50 51 37 25 22 23 24 26 30 30 26 24 17 13
85 76 77 74 67 63 53 43 36 31 31 29 29 23 20 14 9 8 8 6 5 8 11 14 16 25 33 41 44 36 37 35 17 22 26 27 36 38 34 27 20 19 19
84 83 75 73 63 57 50 43 36 33 32 32 32 29 25 15 13 10 8 9 8 8 21 10 21 32 33 27 26 30 37 33 30 28 26 32 38 37 36 33 28 23 28
82 88 73 67 58 53 46 41 36 35 38 37 33 31 22 17 13 10 8 12 12 13 19 22 33 32 28 20 22 17 26 32 35 26 28 34 41 44 39 34 34 31 31
90 78 64 62 61 59 54 50 40 41 40 37 31 25 23 18 14 11 11 12 14 19 28 33 34 27 16 21 12 9 25 32 25 24 29 33 34 37 33 31 32 33 35
82 74 67 64 63 59 59 54 47 44 40 35 30 25 20 14 11 12 14 14 20 24 30 37 35 23 22 19 26 26 28 36 38 36 33 33 33 35 30 25 26 29 26
79 70 60 63 65 62 62 49 44 44 40 38 32 24 21 15 16 14 15 17 25 26 27 34 38 31 26 38 39 40 41 47 48 39 36 45 38 35 31 24 24 28 26
76 64 60 64 65 62 56 52 49 48 44 38 31 22 19 16 16 16 22 20 24 29 28 26 28 30 31 41 46 51 55 51 52 41 36 41 40 34 32 27 32 28 26
71 66 66 61 57 55 59 58 55 51 42 35 24 22 20 14 18 20 18 22 30 28 24 23 25 27 27 35 41 46 47 52 42 40 37 21 22 21 25 24 36 34 20
72 67 67 70 63 63 60 55 52 45 36 27 23 17 16 18 17 16 20 26 27 26 25 29 26 31 31 32 38 46 55 56 59 33 37 6 23 14 29 22 38 32 17
76 76 73 75 72 61 51 46 39 31 24 21 19 18 15 18 22 23 28 25 27 26 30 30 31 32 38 39 45 50 52 53 47 30 35 31 19 25 33 21 32 25 19
83 84 75 72 70 62 52 44 32 23 22 19 13 13 18 21 26 26 25 24 32 32 29 29 34 38 39 42 47 49 44 41 27 18 26 38 34 28 24 20 28 25 25
90 77 76 64 54 47 37 30 25 21 18 16 16 21 22 28 29 33 33 33 31 31 30 34 37 43 46 47 42 44 35 33 43 28 19 34 30 29 15 20 25 25 21
90 77 62 50 39 34 29 24 20 16 13 15 24 20 23 27 33 41 39 38 40 40 42 44 48 51 51 49 39 31 35 33 35 40 22 41 38 34 23 22 26 30 24
Wind_Direction_850mb
185 202 230 245 251 264 290 322 318 327 309 299 301 306 338 327 324 351 316 319 323 310 327 336 345 344 351 347 346 341 325 315 309 298 283 280 273 275 278 269 265 260 254
197 204 217 221 232 238 245 242 253 294 308 302 293 331 325 307 321 339 340 323 318 325 334 340 350 338 346 4 3 360 348 325 315 308 304 287 278 275 273 276 268 260 260
205 214 222 215 212 215 273 256 262 286 285 291 289 297 313 314 308 316 307 302 317 320 326 353 358 347 354 344 348 354 351 355 342 328 316 305 296 280 276 275 275 255 258
223 225 218 217 214 212 233 252 268 276 280 288 292 290 274 304 311 311 317 307 316 344 349 350 353 357 359 343 340 345 339 351 344 339 336 331 318 296 283 278 284 241 271
222 223 216 211 208 215 240 252 257 267 274 288 290 289 286 275 278 286 303 331 357 348 333 8 334 337 340 341 340 333 336 344 353 348 341 337 330 317 299 294 283 269 268
219 216 214 214 218 226 238 247 250 256 271 277 293 303 320 270 236 270 226 271 288 316 337 12 330 327 321 330 328 333 347 337 337 339 334 330 328 322 312 301 295 286 277
228 224 216 215 224 228 239 246 247 253 258 261 275 296 26 173 127 92 222 303 319 351 304 351 323 325 342 355 336 341 342 331 330 326 327 324 320 316 311 306 306 301 290
235 234 218 216 220 226 230 232 235 250 238 234 266 317 99 129 102 122 87 72 32 20 5 329 339 339 344 348 356 351 346 333 338 337 333 324 318 319 312 305 306 303 299
231 239 227 224 222 222 224 225 231 231 200 172 199 165 145 155 119 115 96 56 57 24 9 357 351 345 335 340 334 335 342 340 329 327 330 328 326 317 309 313 311 307 305
230 230 229 224 224 222 225 221 229 216 195 170 163 161 147 130 162 215 223 333 13 347 17 9 21 346 305 316 316 321 327 331 322 315 326 320 324 326 322 316 315 308 304
225 225 231 227 223 222 218 217 221 198 194 200 190 165 163 170 172 223 275 305 305 343 65 16 44 59 291 310 314 316 319 321 321 313 324 325 314 318 323 318 314 308 293
221 229 230 224 222 221 217 214 210 205 198 206 207 207 197 191 201 223 240 290 332 133 97 58 35 320 303 307 308 306 310 316 311 314 326 328 317 319 323 315 313 300 276
220 227 228 218 217 214 214 213 209 209 203 204 207 201 199 194 188 193 240 293 329 298 249 219 329 319 311 301 300 307 317 330 328 323 324 321 326 320 320 311 306 296 256
224 236 234 216 218 210 208 207 202 204 200 195 191 196 201 196 187 187 217 263 286 300 287 291 264 277 296 298 305 317 338 343 336 311 317 328 334 329 318 314 297 288 266
234 239 239 224 211 207 204 201 203 204 196 193 187 191 201 195 193 219 220 252 286 296 296 266 284 305 312 322 324 335 336 353 331 312 334 331 324 318 315 303 298 271 258
241 234 219 215 205 202 196 197 198 197 194 191 185 182 198 200 212 228 245 242 248 268 283 270 303 313 335 324 314 316 304 329 338 314 328 327 325 322 313 304 291 284 263
226 224 217 213 210 196 192 192 201 201 198 196 190 190 199 208 217 227 250 263 271 269 273 293 303 327 323 332 317 276 288 308 319 316 307 328 324 330 316 310 292 284 266
214 215 210 207 203 195 192 195 194 199 200 195 202 202 214 222 231 245 262 285 292 289 294 298 307 310 323 303 288 286 295 297 308 308 290 307 309 324 314 325 296 290 278
213 210 208 201 192 190 192 191 194 192 196 199 203 206 221 231 247 269 280 293 303 297 291 291 294 292 287 288 282 283 292 297 302 304 280 282 297 296 314 321 331 274 275
214 210 202 196 191 190 189 187 189 194 196 203 214 217 223 242 264 274 290 300 303 304 303 291 281 286 287 291 294 297 297 299 302 303 293 289 295 290 304 334 336 322 278
208 199 195 192 188 186 184 183 191 199 205 207 210 220 232 250 265 273 290 302 306 312 311 308 300 302 306 312 310 315 316 314 311 321 318 320 330 283 300 331 337 331 297
192 186 179 184 183 181 187 192 199 202 200 205 213 224 245 248 257 276 292 296 297 306 311 319 317 314 314 310 311 323 324 328 328 338 340 297 351 348 340 330 330 324 316
179 174 179 181 177 181 184 193 196 195 199 211 217 230 246 266 271 279 279 271 291 295 299 298 299 309 304 303 310 315 318 319 320 337 338 326 331 337 347 323 318 312 314
172 172 173 175 179 174 178 186 196 203 215 217 227 244 254 259 271 275 272 280 285 292 299 283 289 293 296 298 302 308 316 320 322 342 350 355 356 351 337 319 315 307 309
168 169 172 171 176 170 178 192 197 201 217 234 247 282 262 263 268 260 271 280 278 286 281 275 275 278 285 291 298 301 314 321 327 328 341 344 337 353 321 308 322 311 298
162 161 156 157 159 170 179 188 203 224 235 259 276 257 260 262 258 257 266 273 277 281 279 272 272 275 283 287 290 287 304 304 322 321 308 313 319 336 334 310 332 340 315